BLOCK DM-SL R/B, 27855

Orbit data source: Space-Track

BLOCK DM-SL R/B, 27855 is space debris in HEO originally from a launch on Fri, 08 Aug 2003 UTC launched from the Sea Launch (SEAL). Debris objects in space refer to the collection of defunct objects orbiting the Earth. Examples of debris include non-operational satellites, rocket bodies, and fragments generated from explosions, collisions, or faulty payload assembly.

Loading next visibility...
Identifier
27855, 2003-034B
Orbit
HEO
Country
Flag of USUS / SEAL
Related business
Manufacturer
RKKE
Mission
Spacecraft
Bus & Motor
BLOK DM2, 11D58M
Mass
~3,210 kg wet, 3,210 kg dry
Launch date (UTC)
2003-08-08 (23 years ago)
Launch vehicle
Unknown
Launch site
Sea Launch (SEAL)
Object type
Payload
Rocket body
Debris
Shape & HBR
Cyl, 3.1 m
Radar Cross Section
23.684 m², Large (>1 m²)

Expand to show TLE details & history
Last TLE update: 18 hours ago

TLE from 18 hours ago
0 BLOCK DM-SL R/B
1 27855U 03034B   26071.83991244 -.00000183  00000-0 -27184-3 0  9992
2 27855   0.8803 342.9222 7137887 220.2210 193.7834  2.24672958185545
Epoch: 2026-03-12T20:09Z
TLE epoch observation values (Epoch: 2026-03-12T20:09:28.434Z)
Latitude
0.60049°
Longitude
-86.45218°
Altitude
35,647.867 km
Speed
1.668 km/s
True Right ascension
01h 45m 36s
True Declination
0° 35' 60"
Sunlit
Object was in daylight at epoch
Visualization orbit readout
Latitude
Unknown
Longitude
Unknown
Altitude
Unknown
Speed
Unknown
Apparent Right ascension
Unknown
Apparent Declination
Unknown
Sunlit
N/A
Visualization observer readout
Local Sidereal Time
18:56:50
Azimuth
Unknown
Elevation
Unknown
Doppler factor
Unknown
Orbital elements
Apogee altitude
35,832.053 km
Perigee altitude
671.176 km
Semi-major axis
24,629.752 km
Eccentricity
0.71379
Inclination
0.8803°
RAAN
342.9222°
Arg. of periapsis
220.221°
True anomaly
183.29576°
Mean anomaly
193.7834°
Eccentric anomaly
188.05368°
Mean motion
0.5615 °/min
Orbital period
641.13 mins
BSTAR
-0.00027184
Loading maneuver chart data...
Computing Atmospheric mass density...
Loading historical data...
Loading historical data...
Loading historical data...
Loading historical data...
Loading historical data...
Loading historical data...
Loading historical data...
Other satellites on launch #34 in the year 2003 (2003-08-08 UTC)

Documentation

Showing up to 5 results
|